Crisp Cnty-Cordele AP, Cordel, GA

4:17 AM EDT on July 21, 2017 (GMT -0400)
Crisp County-Cordele

Weather History for KCKF - August, 2014

Change the Weather History Date:

Thursday, August 14, 2014

  Actual Average (KFZG) Record (KFZG)
Temperature  
Mean Temperature 80 °F -  
Max Temperature 94 °F 89 °F 97 °F (2016)
Min Temperature 67 °F 70 °F 68 °F (2014)
Cooling Degree Days 16    
Growing Degree Days 30 (Base 50)    
Moisture  
Dew Point 62 °F    
Average Humidity 57    
Maximum Humidity 86    
Minimum Humidity 29    
Precipitation  
Precipitation 0.00 in - - ()
Sea Level Pressure  
Sea Level Pressure 30.00 in    
Wind  
Wind Speed 2 mph (NW)    
Max Wind Speed 10 mph    
Max Gust Speed 16 mph    
Visibility 10 miles    
Events      
Averages and records for this station are not official NWS values.
T = Trace of Precipitation, MM = Missing Value Source: NWS Daily Summary

Daily Weather History Graph

Daily Weather History Graph

Search for Another Location

Airport or City:

Trip Planner

Search our weather history database for the weather conditions in past years. The results will help you decide how hot, cold, wet, or windy it might be!

Date:

Astronomy

Aug. 14, 2014 Rise Set
Actual Time 6:59 AM EDT 8:19 PM EDT
Civil Twilight 6:33 AM EDT 8:45 PM EDT
Nautical Twilight 6:02 AM EDT 9:16 PM EDT
Astronomical Twilight 5:30 AM EDT 9:48 PM EDT
Moon 11:03 PM EDT (8/14) 11:15 AM EDT (8/14)
Length of Visible Light 14h 12m
Length of Day
13h 20m
Waning Gibbous, 79% of the Moon is Illuminated
Aug 14
Waning Gibbous
Aug 17
Last Quarter
Aug 25
New
Sep 2
First Quarter
Sep 8
Full

Hourly Weather History & Observations

Time (EDT) Temp. Heat Index Dew Point Humidity Pressure Visibility Wind Dir Wind Speed Gust Speed Precip Events Conditions
12:15 AM 77.5 °F - 66.0 °F 68% 29.99 in 10.0 mi Calm Calm - N/A   Mostly Cloudy
12:35 AM 77.5 °F - 65.3 °F 66% 29.99 in 10.0 mi Calm Calm - N/A   Mostly Cloudy
12:55 AM 77.0 °F - 63.7 °F 63% 29.99 in 10.0 mi Calm Calm - N/A   Scattered Clouds
1:15 AM 75.2 °F - 65.3 °F 71% 29.99 in 10.0 mi Calm Calm - N/A   Clear
1:35 AM 74.3 °F - 65.3 °F 73% 29.99 in 10.0 mi Calm Calm - N/A   Clear
1:55 AM 73.6 °F - 64.9 °F 74% 29.99 in 10.0 mi Calm Calm - N/A   Clear
2:15 AM 72.7 °F - 65.3 °F 78% 29.99 in 10.0 mi Calm Calm - N/A   Clear
2:35 AM 71.6 °F - 65.5 °F 81% 29.99 in 10.0 mi Calm Calm - N/A   Scattered Clouds
2:55 AM 71.6 °F - 65.8 °F 82% 29.99 in 10.0 mi Calm Calm - N/A   Clear
3:15 AM 70.9 °F - 65.8 °F 84% 29.99 in 10.0 mi Calm Calm - N/A   Scattered Clouds
3:35 AM 70.7 °F - 65.7 °F 84% 29.99 in 10.0 mi Calm Calm - N/A   Overcast
3:55 AM 71.2 °F - 66.2 °F 84% 29.99 in 10.0 mi Calm Calm - N/A   Mostly Cloudy
4:15 AM 70.7 °F - 64.9 °F 82% 29.99 in 10.0 mi Calm Calm - N/A   Scattered Clouds
4:35 AM 70.0 °F - 65.3 °F 85% 29.99 in 10.0 mi Calm Calm - N/A   Clear
4:55 AM 69.6 °F - 64.2 °F 83% 29.99 in 10.0 mi Calm Calm - N/A   Clear
5:15 AM 69.3 °F - 64.0 °F 83% 29.99 in 10.0 mi Calm Calm - N/A   Clear
5:35 AM 68.4 °F - 64.0 °F 86% 29.99 in 10.0 mi Calm Calm - N/A   Clear
6:15 AM 69.1 °F - 62.6 °F 80% 30.00 in 10.0 mi Calm Calm - N/A   Clear
6:35 AM 68.9 °F - 62.2 °F 79% 30.01 in 10.0 mi Calm Calm - N/A   Clear
6:55 AM 68.9 °F - 62.6 °F 80% 30.01 in 10.0 mi Calm Calm - N/A   Scattered Clouds
7:15 AM 67.5 °F - 62.8 °F 85% 30.02 in 10.0 mi Calm Calm - N/A   Clear
7:35 AM 67.8 °F - 63.3 °F 85% 30.02 in 10.0 mi Calm Calm - N/A   Clear
7:55 AM 69.8 °F - 63.5 °F 80% 30.03 in 10.0 mi Calm Calm - N/A   Scattered Clouds
8:15 AM 71.1 °F - 63.3 °F 76% 30.03 in 10.0 mi NNE 3.5 mph - N/A   Scattered Clouds
8:35 AM 73.2 °F - 62.8 °F 70% 30.03 in 10.0 mi North 4.6 mph - N/A   Scattered Clouds
8:55 AM 73.9 °F - 62.8 °F 68% 30.04 in 10.0 mi NNE 4.6 mph - N/A   Mostly Cloudy
9:15 AM 75.6 °F - 63.5 °F 66% 30.04 in 10.0 mi North 3.5 mph - N/A   Scattered Clouds
9:35 AM 77.4 °F - 63.5 °F 62% 30.04 in 10.0 mi NNE 4.6 mph - N/A   Clear
9:55 AM 79.5 °F - 64.2 °F 59% 30.04 in 10.0 mi North 4.6 mph - N/A   Clear
10:15 AM 81.5 °F 82.8 °F 63.3 °F 54% 30.04 in 10.0 mi NNE 5.8 mph - N/A   Clear
10:35 AM 82.4 °F 83.5 °F 63.0 °F 52% 30.05 in 10.0 mi NNE 5.8 mph - N/A   Clear
10:55 AM 84.0 °F 84.7 °F 62.4 °F 48% 30.05 in 10.0 mi NE 6.9 mph - N/A   Clear
11:15 AM 84.2 °F 84.4 °F 60.6 °F 45% 30.06 in 10.0 mi North 5.8 mph - N/A   Clear
11:35 AM 85.3 °F 84.8 °F 59.0 °F 41% 30.06 in 10.0 mi North 4.6 mph - N/A   Clear
11:55 AM 86.4 °F 86.1 °F 60.1 °F 41% 30.05 in 10.0 mi ENE 5.8 mph - N/A   Scattered Clouds
12:15 PM 86.7 °F 86.5 °F 60.1 °F 41% 30.05 in 10.0 mi North 3.5 mph - N/A   Scattered Clouds
12:35 PM 88.0 °F 87.4 °F 59.5 °F 38% 30.04 in 10.0 mi NE 3.5 mph - N/A   Clear
12:55 PM 88.0 °F 87.1 °F 58.8 °F 37% 30.03 in 10.0 mi WSW 4.6 mph - N/A   Clear
1:15 PM 89.8 °F 89.1 °F 59.2 °F 36% 30.02 in 10.0 mi WSW 4.6 mph - N/A   Clear
1:35 PM 90.3 °F 89.6 °F 58.8 °F 35% 30.01 in 10.0 mi WSW 3.5 mph - N/A   Clear
1:55 PM 90.7 °F 89.8 °F 58.8 °F 34% 30.01 in 10.0 mi West 6.9 mph - N/A   Clear
2:15 PM 90.5 °F 89.5 °F 58.5 °F 34% 30.00 in 10.0 mi West 6.9 mph - N/A   Clear
2:35 PM 92.1 °F 90.8 °F 57.6 °F 31% 29.99 in 10.0 mi West 9.2 mph - N/A   Clear
2:55 PM 92.3 °F 91.3 °F 58.1 °F 32% 29.98 in 10.0 mi West 6.9 mph - N/A   Clear
3:15 PM 93.0 °F 92.0 °F 58.3 °F 31% 29.97 in 10.0 mi West 6.9 mph - N/A   Clear
3:35 PM 92.8 °F 91.4 °F 57.4 °F 30% 29.96 in 10.0 mi SW 8.1 mph 16.1 mph N/A   Clear
3:55 PM 93.6 °F 92.1 °F 57.2 °F 29% 29.96 in 10.0 mi WNW 10.4 mph - N/A   Clear
4:15 PM 93.0 °F 91.7 °F 57.6 °F 30% 29.96 in 10.0 mi West 10.4 mph - N/A   Clear
4:35 PM 94.1 °F 93.1 °F 57.9 °F 30% 29.96 in 10.0 mi West 9.2 mph - N/A   Clear
4:55 PM 93.6 °F 92.7 °F 58.5 °F 31% 29.96 in 10.0 mi West 6.9 mph - N/A   Scattered Clouds
5:15 PM 92.5 °F 91.6 °F 58.5 °F 32% 29.96 in 10.0 mi West 3.5 mph - N/A   Scattered Clouds
5:35 PM 94.1 °F 93.1 °F 58.6 °F 30% 29.96 in 10.0 mi WSW 9.2 mph - N/A   Scattered Clouds
5:55 PM 93.4 °F 92.5 °F 58.1 °F 31% 29.96 in 10.0 mi WNW 8.1 mph - N/A   Mostly Cloudy
6:15 PM 93.2 °F 92.2 °F 58.5 °F 31% 29.95 in 10.0 mi WNW 6.9 mph - N/A   Mostly Cloudy
6:35 PM 92.5 °F 91.6 °F 58.6 °F 32% 29.95 in 10.0 mi WNW 4.6 mph - N/A   Scattered Clouds
6:55 PM 92.1 °F 90.8 °F 57.6 °F 31% 29.95 in 10.0 mi North 4.6 mph - N/A   Scattered Clouds
7:15 PM 90.0 °F 89.4 °F 59.5 °F 36% 29.95 in 10.0 mi NNW 3.5 mph - N/A   Scattered Clouds
7:35 PM 89.2 °F 89.0 °F 60.6 °F 38% 29.95 in 10.0 mi North 4.6 mph - N/A   Scattered Clouds
7:55 PM 88.0 °F 88.1 °F 61.7 °F 41% 29.96 in 10.0 mi Calm Calm - N/A   Mostly Cloudy
8:15 PM 84.7 °F 86.3 °F 64.6 °F 51% 29.96 in 10.0 mi NNW 3.5 mph - N/A   Scattered Clouds
8:35 PM 83.1 °F 84.6 °F 64.6 °F 53% 29.97 in 10.0 mi Calm Calm - N/A   Clear
8:55 PM 82.0 °F 83.6 °F 64.2 °F 55% 29.98 in 10.0 mi Calm Calm - N/A   Clear
9:15 PM 80.4 °F 82.1 °F 64.4 °F 58% 29.98 in 10.0 mi Calm Calm - N/A   Clear
9:35 PM 79.2 °F - 64.4 °F 60% 29.99 in 10.0 mi Calm Calm - N/A   Clear
9:55 PM 78.3 °F - 65.7 °F 65% 29.99 in 10.0 mi Calm Calm - N/A   Clear
10:15 PM 77.0 °F - 64.8 °F 66% 29.99 in 10.0 mi Calm Calm - N/A   Clear
10:35 PM 76.1 °F - 65.1 °F 69% 30.00 in 10.0 mi Calm Calm - N/A   Scattered Clouds
10:55 PM 75.6 °F - 66.0 °F 72% 30.00 in 10.0 mi Calm Calm - N/A   Scattered Clouds
11:15 PM 76.1 °F - 65.7 °F 70% 30.00 in 10.0 mi Calm Calm - N/A   Scattered Clouds
11:35 PM 75.7 °F - 66.0 °F 72% 30.00 in 10.0 mi Calm Calm - N/A   Mostly Cloudy
11:55 PM 74.1 °F - 66.7 °F 78% 30.00 in 10.0 mi Calm Calm - N/A   Scattered Clouds